Flag for Russia Weather past 2 weeks in Yakutsk, Russia

Now
-33 °F

Clear.


Feels Like: -33 °F
Forecast: -34 / -10 °F
Wind: 1 mph from Northwest

Location: Jakutsk

Current Time: Jan 31, 2015 at 7:00:04 AM

Latest Report: Jan 31, 2015 at 6:30 AM


Visibility: 10 mi

Pressure: 30.12 "Hg

Humidity: 66%

Dew point: -40 °F

Location of YakutskLocation

Historic Weather in Yakutsk — Graph

°F

Yakutsk temperature yesterday

Maximum temperature yesterday: -26 °F (at 9:00 PM)
Minimum temperature yesterday: -42 °F (at 9:30 AM)
Average temperature yesterday: -35 °F

Past Weeks' High & Low Weather Summary

 TemperatureHumidityPressure
High-4 °F (Jan 23, 1:00 PM)84% (Jan 23, 7:30 AM)30.33 "Hg (Jan 23, 7:30 AM)
Low-42 °F (Jan 26, 4:30 AM)58% (Jan 26, 4:00 AM)29.71 "Hg (Jan 23, 11:00 AM)
Average-27 °F71%30.08 "Hg
* Reported Jan 16 5:00 AM — Jan 31 5:30 AM, Yakutsk, Weather by CustomWeather, © 2014

Note: Actual official high and low records may vary slightly from our data, if they occured in-between our weather recording intervals... More about our weather records

Advertising

Yakutsk weather history for previous 24 hours

 ConditionsComfort  
Time TempWeatherWind HumidityBarometerVisibility
5:30 AM
Jan 31
-33 °FClear.3 mph66%30.12 "Hg10 mi
5:00 AM-31 °FClear.No wind74%30.12 "Hg10 mi
4:30 AM-29 °FClear.1 mph67%30.09 "Hg10 mi
4:00 AM-31 °FClear.1 mph74%30.09 "Hg10 mi
3:30 AM-29 °FLight snow. Mostly cloudy.3 mph74%30.09 "HgN/A
3:00 AM-29 °FLight snow. Mostly cloudy.1 mph74%30.09 "HgN/A
2:30 AM-31 °FLight snow. Mostly cloudy.1 mph74%30.09 "HgN/A
2:00 AM-27 °FLight snow. Overcast.1 mph67%30.09 "Hg3 mi
1:30 AM-27 °FLight snow. Overcast.No wind74%30.07 "Hg3 mi
1:00 AM-26 °FLight snow. Overcast.1 mph75%30.07 "Hg3 mi
12:30 AM-26 °FLight snow. Overcast.1 mph75%30.07 "Hg3 mi
12:00 AM-24 °FLight snow. Overcast.1 mph68%30.04 "Hg3 mi
11:30 PM
Jan 30
-26 °FLight snow. Overcast.1 mph75%30.04 "Hg2 mi
11:00 PM-26 °FLight snow. Overcast.1 mph75%30.04 "Hg2 mi
10:30 PM-26 °FLight snow. Overcast.3 mph75%30.04 "Hg2 mi
10:00 PM-26 °FLight snow. Overcast.3 mph75%30.04 "Hg2 mi
9:30 PM-26 °FLight snow. Overcast.3 mph75%30.04 "Hg2 mi
9:00 PM-26 °FLight snow. Overcast.3 mph67%30.01 "Hg2 mi
8:30 PM-27 °FLight snow. Overcast.3 mph74%30.01 "Hg2 mi
8:00 PM-27 °FLight snow. Overcast.3 mph67%30.01 "Hg2 mi
7:30 PM-29 °FLight snow. Overcast.3 mph74%30.01 "Hg3 mi
7:00 PM-29 °FLight snow. Overcast.3 mph67%30.01 "Hg3 mi
6:30 PM-31 °FLight snow. Overcast.3 mph74%30.01 "Hg3 mi
6:00 PM-31 °FLight snow. Overcast.3 mph67%29.98 "Hg3 mi
5:30 PM-33 °FLight snow. Ice fog.3 mph66%29.98 "Hg3 mi
5:00 PM-35 °FLight snow. Ice fog.3 mph73%29.98 "Hg3 mi
4:30 PM-35 °FLight snow. Ice fog.3 mph66%29.98 "Hg3 mi
4:00 PM-35 °FLight snow. Ice fog.3 mph66%29.98 "Hg2 mi
3:30 PM-35 °FLight snow. Ice fog.1 mph66%29.98 "Hg2 mi
3:00 PM-35 °FLight snow. Ice fog.1 mph66%29.98 "Hg1 mi
2:30 PM-35 °FIce fog.1 mph66%29.98 "Hg2 mi
2:00 PM-36 °FIce fog.1 mph73%29.98 "Hg3 mi
1:30 PM-35 °FIce fog.3 mph66%29.98 "Hg3 mi
1:00 PM-35 °FLight snow. Ice fog.3 mph66%29.98 "Hg1 mi
12:30 PM-36 °FIce fog.1 mph73%29.98 "Hg1 mi
12:00 PM-36 °FIce fog.1 mph66%29.98 "Hg1 mi
11:30 AM-36 °FIce fog.No wind66%29.98 "Hg1 mi
11:00 AM-38 °FIce fog.1 mph65%29.98 "Hg1 mi
10:30 AM-40 °FFog.No wind65%29.98 "Hg0 mi
10:00 AM-40 °FFog.No wind65%29.98 "Hg0 mi
9:30 AM-42 °FFog.1 mph65%29.98 "Hg1 mi
9:00 AM-40 °FFog.No wind65%29.98 "Hg1 mi
8:30 AM-40 °FFog.1 mph65%29.98 "Hg0 mi
8:00 AM-40 °FFog.No wind65%29.98 "Hg0 mi
7:30 AM-40 °FFog.1 mph58%29.98 "Hg1 mi
7:00 AM-38 °FFog.1 mph58%29.95 "Hg1 mi
Weather by CustomWeather, © 2014

See weather overviewHow to use our weather pages